TIMESTAMP,CO2_1_1_1,H2O_1_1_1,TAU_1_1_1,TAU_SSITC_TEST_1_1_1,H_1_1_1,H_SSITC_TEST_1_1_1,LE_1_1_1,LE_SSITC_TEST_1_1_1,FC_1_1_1,FC_SSITC_TEST_1_1_1,WD_0_0_1,WS_0_0_1,WS_MAX_0_0_1,U_SIGMA_0_0_1,V_SIGMA_0_0_1,W_SIGMA_0_0_1,USTAR_0_0_1,MO_LENGTH_0_0_1,ZL_0_0_1,FETCH_MAX_0_0_1,FETCH_70_0_0_1,FETCH_80_0_0_1,FETCH_90_0_0_1,PA_0_0_1,RH_0_0_1,TA_0_0_1,VPD_0_0_1,T_SONIC_0_0_1,T_SONIC_SIGMA_0_0_1
[yyyymmddHHMMSS],[mmolCO2 mol-1],[mmolH2O mol-1],[kg m-1 s-2],[#],[W m-2],[#],[W m-2],[#],[umolCO2 m-2 s-1],[#],[Decimal degrees],[m s-1],[m s-1],[m s-1],[m s-1],[m s-1],[m s-1],[m],[#],[m],[m],[m],[m],[kPa],[%],[deg C],[hPa],[deg C],[deg C]
20240614003000,418.58650370855742,11.953268249639713,0.76522969945594010,0,12.353798093442714,2,16.215400086795196,1,2.4378267435454486,0,310.61274188139146,5.0180424037616707,12.542133904370361,1.9720767338840766,1.6564513590000969,1.0459639118521766,0.82398784182979090,-3784.3275172805043,-5.0207070908211962E-003,103.46135982695732,189.16036307197129,226.37664236630366,283.39669341300481,94.123395935329867,60.226666666666667,16.475999999999999,7.4319691097190228,17.136070783826938,0.69997414227502608
20240614010000,419.87550289804381,13.357597548768627,0.15978838863346703,1,-26.099475716086872,1,26.907832344417518,1,2.5037675673903390,0,313.43177494134977,2.1935166996370725,9.0848674351282384,1.4235469146175459,0.78023530119299411,0.50456848646550956,0.37512919971434050,169.10390897270346,0.11235695328052385,98.778743664459284,180.59904728309820,216.13093395758531,270.57028228527798,94.163111546006945,77.444666666666663,14.295666666666648,3.6642354293837776,15.194896631876759,0.28969731028572004
20240614013000,421.07238080690615,13.700990937226948,0.14005663113278183,0,-23.189455691216491,0,37.314044379234495,1,1.3386527108929827,1,287.92866786761005,1.2369265939882206,5.1215480600932670,0.90358031708311193,1.1217871469695495,0.37939670429273714,0.35091925259999140,155.80157760356821,0.12194998466796562,117.63750725092204,215.07888181330591,257.39448961762793,322.22735746000996,94.155965886718747,82.186666666666667,13.769666666666637,2.7967917463661318,14.784808425903293,0.14612542466313028
20240614020000,422.25550568682110,13.361760576477796,8.5065687506066343E-002,0,-25.322541646925156,0,13.869700613868069,0,2.9700814759841072,0,248.60879261871710,1.9365655236196335,4.9331941779304005,0.77282766062975605,0.62350947248496458,0.30652289956277234,0.27351703379243031,67.533659825974723,0.28134118673503666,114.30679873922696,208.98928437893130,250.10679679356798,313.10403083337695,94.113274868648602,80.244000000000000,13.745000000000005,3.0968309516435286,14.718914087344103,0.22171307496629666
20240614023000,423.79692621277843,13.219106776353780,9.2422688294140229E-002,0,-25.068836174466959,0,16.313827662269968,1,3.9675182294484572,0,227.48710643201042,2.4843492359148232,5.2258541236532725,0.66239567266499777,0.54391150609775585,0.33154396419307464,0.28505518720519485,77.230616025516895,0.24601642428596485,110.95967033237520,202.86966613935331,242.78317673310022,303.93572757004233,94.135470566623269,79.436999999999998,13.738999999999976,3.2220741372558908,14.745238510131855,0.24888493211634619
20240614030000,425.03918990485931,13.294389263751134,9.7594856506840882E-002,0,-41.460257868553512,0,0.86789315159583991,0,5.1306911783146028,0,239.03792810635917,2.7993953540251018,5.1389388728048546,0.58588078185460157,0.48787189181452106,0.34004331811796035,0.29288707366863359,50.657610909836066,0.37506703649758610,111.11883191522591,203.16066427478771,243.13142717925436,304.37169580372603,94.145787635633681,80.140999999999991,13.692333333333352,3.1023327810297063,14.760086910671703,0.28610509233922399
20240614033000,425.99792582848085,12.963541524410973,9.1441174830593344E-002,0,-35.195688087205227,0,8.0918162309520376,1,4.4634902696593928,0,247.95895757025008,2.8231504805515528,5.3223802907529354,0.61726895221911726,0.52265308529710142,0.33953408729147072,0.28336862105991817,54.040541049604144,0.35158789366227444,108.35017074527474,198.09866863692665,237.07351125246018,296.78790392183447,94.147145423177079,79.335333333333338,13.460666666666668,3.1798677082278939,14.512611443413675,0.26958110701747112
20240614040000,425.71507761901455,12.474878627941129,0.11009016715434387,0,-47.709483895524720,0,8.3619978807697279,0,4.3391099126645827,0,258.26166851583798,3.0366511893540400,5.5852563278464116,0.69025893591530085,0.58675764130788288,0.37949220560328617,0.31077608130309448,52.585929095924627,0.36131338414390568,106.72119522740358,195.12038185516357,233.50926263974767,292.32588760784495,94.151953774522568,77.381333333333330,13.254666666666651,3.4340999923784423,14.265773110283817,0.29692061918626395
20240614043000,427.11799129343984,12.484080773851153,6.3815686202274763E-002,0,-33.094244110493229,0,6.0385202926149777,1,3.5266460470421430,0,282.40390483063055,2.8045218868703183,5.0990161920251786,0.64504885227461706,0.59477262194824199,0.31671838867503882,0.23651222248310921,33.416275021280242,0.56858521746964219,99.128639959005497,181.23876930322822,216.89651782839721,271.52870244404750,94.157830838107643,78.590000000000003,13.029666666666685,3.2031617710828004,14.067726506551139,0.27039424683684149
20240614050000,428.14453224266089,12.251403456323535,6.0808885335785462E-002,0,-34.576331413784082,0,4.5433922019434316,0,3.0394909430087034,0,274.95594666210496,2.8905178691914015,5.1157479309263012,0.57339135016576537,0.46933258453366150,0.32252147014407873,0.23067298616618989,29.678028963037445,0.64020424077567906,95.764685211731006,175.08838714687147,209.53608121675924,262.31430922745864,94.186515372178832,79.111666666666665,12.646000000000015,3.0475743253692600,13.571798446655407,0.35875214723459903
20240614053000,430.29016044720476,12.337458697574675,7.7268560169157743E-002,0,-32.654151795220244,0,2.6935135065314082,1,3.1878851180657861,0,278.10931923534798,2.9022794142941182,5.4083978842841569,0.60918842909483750,0.53850454551765337,0.37024294210370917,0.25973575067077365,44.869937580667504,0.42344609831118352,94.295475315303875,172.40220287573956,206.32140470525005,258.28991570244114,94.208702982638897,82.766666666666666,12.069000000000017,2.4207338286021516,12.970287467108790,0.24163328774975898
20240614060000,431.17860242962934,12.471367594610667,3.0818698613182514E-002,0,-14.996989601961811,0,0.18621618361769007,2,1.6958294903635691,0,288.01416877710545,2.2554217406759585,4.1718657458700354,0.62142512650841641,0.34176788667221619,0.22038986204994887,0.16397986286481531,24.589596378596596,0.77268450069144190,258.18099391411016,2537.0000000000000,4737.0000000000000,-9999.,94.231879977213538,84.446666666666673,11.931666666666672,2.1650572432658124,12.896256398518915,0.20600554162309662
20240614063000,429.58837238281274,12.513130239365742,9.1439204129794092E-003,0,-6.3360705287678156,0,0.57302858791581235,1,0.96576421499199561,0,292.17045379558186,1.9033809623804976,3.1380321779920939,0.38755844861332006,0.28112826499444460,0.15141545173210996,8.9353223992841097E-002,9.4178895973370107,2.0174371130207782,631.80377831927353,6008.0000000000000,-9999.,-9999.,94.248248482904359,83.326666666666668,12.187666666666644,2.3604464687454105,13.174354763308656,0.19261881979628714
20240614070000,433.61970760373083,12.521466078669540,7.0528049219393211E-003,1,-6.2546930094884399,1,0.86924697033720499,1,1.7348767270793894,1,269.39434604103946,1.8303037717954316,3.1155620569013633,0.34987632382837691,0.55080022010472507,0.11057924548084207,7.8401805323739110E-002,6.4455205167547032,2.9477836507712234,763.85278962380278,6839.0000000000000,-9999.,-9999.,94.262222489149309,86.090000000000003,11.705333333333328,1.9075843816541511,12.645817816840292,0.31679363304661812
20240614073000,434.88703280992797,12.585075481121926,7.5874637581379257E-003,1,-5.1451725560968944,0,-0.73878047859173912,0,1.4899033353866771,0,255.40021960512303,1.9629297484692356,3.4215868194088865,0.39159343952207043,0.30845251578469085,0.10070435066982245,8.1277313536056245E-002,8.7322520462239410,2.1758419133373628,802.86909013996012,7788.0000000000000,-9999.,-9999.,94.301434111111121,87.613333333333330,11.523000000000025,1.6783203021886106,12.448509101867671,0.16739794320390980
20240614080000,435.52357307568883,12.509488924609077,1.2965008646771987E-002,1,-8.5557416795530230,1,-1.3788679727233644,2,2.2184887120153314,1,262.72052146570513,1.7072499045066984,3.0640491833263130,0.38237982288952488,0.47237984508628839,0.11222810661392274,0.10616703532875632,11.706037279931614,1.6230940962893463,366.99589554878924,3370.0000000000000,6170.0000000000000,-9999.,94.328331457401532,89.019999999999996,11.196000000000026,1.4558376572189990,12.218591768951683,0.29448167273468023
20240614083000,432.06434825629401,12.458785154411963,1.8255910695029236E-002,0,-17.383412335750219,0,0.46710908267538281,2,4.3317331440127100,0,297.62701017993277,2.4904039382968710,4.0574386065368158,0.44037925042352760,0.45909900068622211,0.17619547546696573,0.12598873589877027,9.6300995182810567,1.9729806492582791,548.14054825032269,5126.0000000000000,9436.0000000000000,-9999.,94.351189321180556,88.040000000000006,11.305333333333351,1.5973154804992533,12.305339272393155,0.33660754793645464
20240614090000,433.21559553811926,12.423332249666714,2.0750150610447320E-002,0,-19.361866481248768,0,-0.55769045694935770,1,2.4339786882178847,1,300.80029017051373,2.1519134609125956,3.6369228143179444,0.45777683770774236,0.35853366166554224,0.20194656941598702,0.13424189141497114,10.461659565405830,1.8161554465821457,365.31007712030885,3277.0000000000000,5960.0000000000000,-9999.,94.386872015190974,89.109999999999999,11.086000000000013,1.4334006903808314,12.099806995815754,0.30761292568972237
20240614093000,430.44829267375854,12.510779287264658,1.5620618960204490E-002,0,-19.204775235343003,0,0.45122565035223611,2,3.6613012553639739,0,299.74173709042782,2.7305981080719692,3.9911337090039893,0.36173558939538558,0.33730285754815170,0.18535226110144254,0.11649129244794827,6.8944057664847351,2.7558575232637588,770.03454473289764,7013.0000000000000,-9999.,-9999.,94.427656605528000,88.586666666666673,11.287000000000035,1.5224540527210046,12.324180149172264,0.26058030981004704
20240614100000,431.14631705564619,12.479119643702937,3.9962954976141919E-002,0,-26.227561580724920,0,-0.70681066579803531,0,3.6630279195167845,0,292.68552941865852,2.5963188727525708,4.4566970129779673,0.50999209630643250,0.37819330076118229,0.26950114990545920,0.18620995994846509,20.627464450923444,0.92110206008133078,270.25242888888050,2616.0000000000000,4864.0000000000000,-9999.,94.480397371961814,89.543333333333337,11.095333333333315,1.3772162729901651,12.052277006361237,0.29673591031534435
20240614103000,431.19685084381871,12.500894167758918,2.6641489247288277E-002,0,-23.559769503494500,0,-1.5318623366599433,1,4.9490031402406274,0,290.70575355843602,2.0532608812822701,3.4499355244993364,0.45757672294737500,0.36442535254180930,0.21518285245316207,0.15197041167935324,12.484973831707725,1.5218293811514649,261.65510864393144,2318.0000000000000,4202.0000000000000,-9999.,94.506657306640633,90.789999999999992,10.917666666666662,1.1987857568513778,11.913855517917227,0.29374156676508201
20240614110000,430.79114821648767,12.537380182230770,4.5320411210953834E-003,1,-8.4651923119383650,1,-1.3994257827996843,1,2.5452104413924577,1,287.97737648746539,1.7295614627829055,3.3080761414053361,0.39023365796214515,0.26618144411809636,0.15517535374740746,6.2671682610239754E-002,2.4373719960072564,7.7952811598412381,924.38614171377958,6905.0000000000000,-9999.,-9999.,94.525074827256944,91.200000000000003,10.896666666666647,1.1438211916560135,11.863919839647110,0.27768794290282600
20240614113000,427.21132873001403,12.805453641973568,1.2897799575006931E-002,0,-4.8092263723277622,0,-0.88852547504540758,2,0.98123776912268834,0,304.99102729435003,1.5360228884655109,2.5252279409053457,0.27210309491580625,0.28587130729172994,0.15113563700418065,0.10584019837368118,20.669635168829576,0.91922280411860224,289.80239492487419,2836.0000000000000,5289.0000000000000,-9999.,94.551407644097225,89.163333333333341,11.560333333333347,1.4719357895094662,12.464573239644324,0.23759036054380001
20240614120000,423.77551574322200,13.185520717021170,1.3805884543111860E-002,1,15.018241885605629,1,12.442635899563122,1,-1.5769481511577197,1,308.00402082009566,1.0882810730830170,2.1176513530317966,0.31719803302559713,0.27334088420939229,0.17236012181733606,0.10967860856504294,-7.3675536746009120,-2.5788750023635489,68.219126878953162,203.00000000000000,276.00000000000000,442.00000000000000,94.577212582682293,86.250000000000000,12.512333333333345,1.9885836726827189,13.362365339491021,0.28255871475725830
20240614123000,422.55398824492238,13.551896528152016,7.2475996446132160E-002,1,38.350134056903258,0,51.373282654171589,0,-0.58778868328503686,1,334.88900524803057,1.1333425488603002,3.5923206980750213,0.63283852771507454,0.39193690131247200,0.29223021278046679,0.25168987453126618,-34.869239915012876,-0.54489286391985825,111.11364736754602,203.15118526810221,243.12008322922389,304.35749452440996,94.577590891493060,83.819999999999993,13.367999999999995,2.4747746825955597,14.375600400288874,0.34038229079020643
20240614130000,421.40465614986124,13.532630300805558,0.10918110798096500,1,28.023453271340731,1,60.785677656347353,0,-3.3044443479189498,1,320.16624742803924,1.4676327121771733,3.2702892403333310,0.63196752925288746,0.45844007475445125,0.33379886410152659,0.30925915643944740,-88.549437607626984,-0.21456940341271555,117.79451538240308,215.36594275282843,257.73802824584942,322.65742705676666,94.615125072482641,79.747000000000000,14.118333333333339,3.2526270760823515,15.081563774108872,0.46664115109734833
20240614133000,416.86568310518879,13.357466152054309,0.12740406657016759,1,85.829387765046846,1,84.173068302795244,1,-8.8136970723455441,1,338.14808977277812,1.3752085703841479,3.3013334807258228,0.62528205974583517,0.52838531365799346,0.36296698534013327,0.33480446574964595,-36.689891942574157,-0.51785380097979550,117.38002401169999,214.60812033194074,256.83110835859384,321.52207097695145,94.636732533854172,72.188666666666663,15.463999999999999,4.8713921147986508,16.372742462158158,0.43198510869759948
20240614140000,415.58271990332440,13.081971234392602,0.21219883177937168,1,128.88614696144623,0,112.33564575995068,0,-10.015498829543855,0,332.72811519401228,1.6269207011504421,5.0159755452517203,0.86091654198466616,0.79211735380684145,0.49267788019474662,0.43270531102927945,-52.753912993607251,-0.36016285658852321,112.86472535396790,206.35271430496098,246.95149580441844,309.15396841659793,94.663525455743638,66.600666666666669,16.403000000000020,6.2120016907302125,17.187561557970753,0.41110458141725004
20240614143000,413.91226019282368,12.686669432982287,0.17886077108277509,1,157.13547376471877,0,176.93259724453185,0,-11.346810612659937,0,314.07787851912451,1.7723170487955509,5.4408748736249404,0.92135582103133584,0.76191914002299765,0.53957460583712669,0.39762500231984493,-33.576940990904006,-0.56586453200567322,98.082752690267029,179.32655380733857,214.60808426646958,268.66385517991927,94.673867604189823,62.167666666666669,17.005999999999972,7.3112693300964269,17.666193584071493,0.45407741698657417
20240614150000,412.83314260998952,12.018950181083486,0.17348453841777436,1,198.34616415456230,0,158.99574774603789,0,-15.268231488131949,0,327.32919390947620,1.5321519341313443,4.4173830006609398,0.75840548296041743,0.89811945245990488,0.55540291020774579,0.39189060908934081,-25.466249523413602,-0.74608551928824274,94.732776086334525,173.20172815511114,207.27823226305216,259.48775026352098,94.687310442708338,56.923999999999999,17.546666666666681,8.6141960843908549,18.191807656182164,0.52514700419037807
20240614153000,413.25208877459357,11.688153896753594,0.17037943918769291,0,158.27605405825349,0,122.85032071185563,0,-11.473409169824659,0,333.81427754476658,1.9982542115491670,6.3497636421000303,1.1076425785291031,0.91549625943792678,0.52080704481656537,0.38852880627283864,-31.100016456771701,-0.61093215260543532,99.049434110469051,181.09395575069385,216.72321299191097,271.31174535386674,94.697449473524301,54.295333333333332,17.855666666666650,9.3196311618287861,18.379440859476688,0.52163842855272702
20240614160000,413.04533535502247,11.106861199834833,0.23687933752158499,1,197.28789892602839,0,141.99088108317119,0,-14.353047497402503,0,341.45323465999417,1.8518769607962451,5.9027350145290072,0.86036315081000447,0.95187992334660854,0.58648010493561276,0.45839267931279759,-40.969038826921327,-0.46376484643117460,102.81166938794654,187.97252174132169,224.95509967242509,281.61709064666144,94.690008465711813,50.343666666666664,18.245000000000005,10.376282419481074,18.797137580023900,0.53680038645821371
20240614163000,414.12374618256621,10.436567125124157,0.37240032467326178,1,255.09369208584573,0,96.388668793693242,1,-11.927792126343624,0,348.06193140280448,2.5464387810207807,6.9389532327885437,1.0951414758115183,1.1132188768107674,0.71948151184497744,0.57535379107075191,-62.642927441933438,-0.30330638710350755,104.70976193611563,191.44284028494400,229.10818463741765,286.81626019984213,94.679512452690986,45.401666666666671,18.899333333333345,11.886055470099077,19.293638142903660,0.55098311098167552
20240614170000,414.20249340253446,10.650323345706223,0.53420082354093468,0,254.55197775715078,0,189.61682648610113,0,-10.531999356622888,0,357.07286285195039,2.9433724979270295,10.047581252944800,1.4871854209230504,1.5975937116424197,0.80558801786934919,0.68943550191998793,-108.00902345280419,-0.17591122845678051,110.55017032711523,202.12096952641002,241.88717810719021,302.81404361346779,94.670631036024304,45.657666666666664,19.132666666666637,12.003810021122064,19.502406179640047,0.56729969468243879
20240614173000,413.01467008288563,10.880610636294351,0.42415199024793243,1,225.45427276901512,0,134.92559626176148,0,-7.9340448759078219,0,9.5509472482979447,2.8178869207371124,8.7851497511788619,1.3503249752905464,1.2090704210942695,0.70493169447992898,0.61446932416466271,-86.358751279609265,-0.22001244481271484,112.18568273363624,205.11120782545876,245.46572963363354,307.29396547820284,94.698102525607638,46.105666666666664,19.324000000000012,12.047580134582208,19.727695849100769,0.54947640870016246
20240614180000,412.58046428165801,10.728155682550318,0.27576645403050548,1,252.18753562824409,0,154.68411814930263,0,-12.226203427391203,0,14.948763797262671,2.1245546975917540,8.2460437266626609,1.1560188373180340,1.0240599454443584,0.61307107318070131,0.49559953595542194,-40.508710814237226,-0.46903492157845328,105.62116479203580,193.10917538259824,231.10236216138745,289.31273382213885,94.705463938368055,44.894666666666666,19.526333333333355,12.474279331697986,19.850845876905623,0.65434896692526323
20240614183000,412.47085685265489,10.721723165885194,0.32718145023328782,1,253.40236844992370,0,137.44493964381365,0,-11.379698031787903,0,27.527350020683116,2.1060092923325660,7.4558296196866660,1.2080677044954236,1.1879293052472930,0.69205318407003669,0.54033123889473400,-52.240116678566629,-0.36370516009577419,102.72387277010205,187.81200152260692,224.76299796805941,281.37660210841312,94.690329343749994,43.488000000000000,20.027333333333331,13.196474972561541,20.305180157131645,0.59925838453316105
20240614190000,413.21325677381293,10.281928991203738,0.26489009471045266,1,230.08916925925618,0,245.33914400695124,0,-13.092433028007351,0,0.52279843358215317,1.8609663157144714,7.7283124948830304,1.1985727174036664,1.0777494310470641,0.60329513726536710,0.48635374789649499,-41.949643524211787,-0.45292399181017834,105.38841028996251,192.68362591956722,230.59308814098873,288.67518318125332,94.678862940538195,41.133000000000003,20.248333333333335,13.935598688830341,20.609286591423881,0.61421575078049784
20240614193000,413.71882527320895,10.212514630636761,0.25449139523039788,0,214.06882032624068,0,177.32840702124099,0,-11.179071378650045,0,47.118467350731692,2.0533885132912078,7.4742883966702260,1.3447133989732998,0.96266650720970715,0.56860340023614153,0.47694413807994823,-42.522952077099774,-0.44681752023120291,108.78808957878262,198.89932393162752,238.03169115000154,297.98743145179333,94.681424035590268,40.102666666666664,20.550000000000011,14.446019193663494,20.848712564256459,0.65917685820340288
20240614200000,414.84260758269545,9.5708265557433805,0.13169085402098571,1,154.46784741135133,0,197.56366215579322,0,-11.965902759318745,0,11.795528417528857,1.3722376909585221,4.9232233291602876,0.87862650667272546,1.1382426607259382,0.49363535620347115,0.34307273800966670,-21.932527160242266,-0.86629323931452173,93.592028494418841,171.11607773430521,204.78224139189766,256.36306587788698,94.693344607638892,37.407333333333334,20.627999999999986,15.168830074539528,20.821269715203243,0.48832904902781887
20240614203000,414.94898535819402,9.5988252338875810,6.5987938130201386E-003,1,45.868929687943094,0,108.56734774141974,0,-8.9738231239593524,0,256.71112973120921,0.76455104481406988,3.7288426201383738,0.55455658549765041,0.99966122606437879,0.39568937773968116,7.6776007731976278E-002,-0.82795547991296081,-22.948093781561038,26.753130469047910,76.000000000000000,103.00000000000000,162.00000000000000,94.717706097222219,37.719666666666669,20.544666666666672,15.015811839434150,20.783333265516490,0.30195643254331722
20240614210000,414.60794555285247,9.6420952807645719,0.43483751632809892,1,189.87153858559029,0,354.67835625690105,1,-9.5333323044222968,0,280.99742833359045,0.83896102668924200,5.6577074938848000,0.92448315705945716,1.3949301830248693,0.66235860765963417,0.62419402446286110,-107.47468497414397,-0.17678581709330882,119.40871852249701,218.31722091660649,261.26995444093114,327.07897953940005,94.701183137152768,35.973333333333336,21.386333333333312,16.256367674195719,21.350843245612282,0.53425165806785635
20240614213000,414.14364817484989,10.017017545789329,0.23754185059343030,1,241.56589669543075,0,205.61775680984888,0,-14.446958601294611,0,340.00241422907118,1.3753460689070587,5.5528682151897542,0.93513695953132259,0.89473789910267909,0.57968383895724607,0.46162323964937674,-34.169370243543739,-0.55605356096927272,104.35952102757447,190.80248820052225,228.34184674056922,285.85689608995085,94.692744223090273,36.719000000000001,21.673000000000002,16.351368452471892,21.749643911573685,0.58286309102056932
20240614220000,414.11688799117388,10.431249159382132,0.34472941041666422,1,197.15119145210949,0,212.52894098891272,0,-8.9321325124900977,0,21.395934350428234,2.0093799802815893,5.7786115052663654,1.0263801150646965,0.87210022020970190,0.60421400755405441,0.55633371579293878,-73.270355925531419,-0.25931360316183966,117.21159417486044,214.30017687225677,256.46257868720915,321.06071555969953,94.656512432291663,38.028666666666666,21.756333333333316,16.094705665256239,21.969295060051820,0.51449102051549889
20240614223000,413.04422487359551,10.848861184561073,0.33192628641033478,1,173.18683165049856,1,180.41043874504726,1,-12.462632663771755,1,11.897875335681988,1.9397228373562596,6.1466027307251494,1.0231392127958159,0.65049921176241055,0.54674642971472220,0.54568457581847207,-78.725574468913436,-0.24134469806254100,125.01999518715159,228.57642428449785,273.54760063519586,342.44913565612183,94.673788235243066,40.121000000000002,21.525333333333322,15.333213273853021,21.826317085266112,0.48883378642242048
20240614230000,413.61634480032649,10.667703337943088,9.7420303615301865E-002,1,113.82492592239355,0,146.30481099489074,0,-7.7471860460007136,0,4.7971034685143934,1.6019362520003950,4.6781863776985375,0.80469740910402188,0.71530889873476589,0.47168165219837416,0.29565742233385656,-19.050091546861243,-0.99737053511065699,86.172113007985800,157.55010576443638,188.54723774155130,236.03876782326986,94.666114365101421,39.315333333333335,21.580333333333328,15.591897430844170,21.892806606605404,0.40403437783658502